This demonstration page uses our WeatherBlox Daily Observations layout. Learn more.

Left ArrowRight Arrow

Hourly Observations for June 28, 2022

Temp ( °F °C ) Dew Point ( °F °C ) Humidity (%) Winds ( mph kmh ) Pressure ( in mb ) Visibility ( mi km ) Precip ( " mm )
12:53 am 00:53 Clear 73 22.8 69 20.6 87 87 Calm 30.06 1018 10 16 0.00 0.00
1:53 am 01:53 Clear 73 22.8 69 20.6 87 87 Calm 30.04 1017 10 16 0.00 0.00
2:53 am 02:53 Clear 71 21.7 69 20.6 94 94 Calm 30.04 1017 10 16 0.00 0.00
3:53 am 03:53 Clear 71 21.7 69 20.6 94 94 Calm 30.05 1018 10 16 0.00 0.00
4:53 am 04:53 Mostly Cloudy 72 22.2 69 20.6 91 91 Calm 30.06 1018 10 16 0.00 0.00
5:53 am 05:53 Mostly Clear 71 21.7 69 20.6 94 94 Calm 30.07 1018 10 16 0.00 0.00
6:53 am 06:53 Mostly Sunny 71 21.7 69 20.6 94 94 Calm 30.09 1019 10 16 0.00 0.00
7:53 am 07:53 Mostly Cloudy 73 22.8 70 21.1 90 90 Calm 30.09 1019 10 16 0.00 0.00
8:53 am 08:53 Sunny 77 25 70 21.1 79 79 NE 6 9 30.11 1020 10 16 0.00 0.00
9:30 am 09:30 Mostly Cloudy 78 25.6 70 21.1 76 76 E 8 13 30.11 1020 10 16 0.00 0.00
9:53 am 09:53 Mostly Cloudy 78 25.6 70 21.1 76 76 E 10 17 30.12 1020 10 16 0.00 0.00
10:53 am 10:53 Cloudy 79 26.1 70 21.1 74 74 ENE 12 19 30.13 1020 10 16 0.00 0.00
11:53 am 11:53 Mostly Cloudy 81 27.2 70 21.1 69 69 ENE 9 15 30.14 1021 10 16 0.00 0.00
12:53 pm 12:53 Mostly Cloudy 81 27.2 69 20.6 67 67 ESE 6 9 30.14 1021 10 16 0.00 0.00
1:53 pm 13:53 Partly Cloudy 81 27.2 68 20 65 65 ESE 8 13 30.13 1020 10 16 0.00 0.00
2:53 pm 14:53 Cloudy 82 27.8 68 20 63 63 ESE 7 11 30.12 1020 10 16 0.00 0.00
3:53 pm 15:53 Mostly Sunny 82 27.8 68 20 63 63 SE 7 11 30.10 1019 10 16 0.00 0.00
4:53 pm 16:53 Partly Cloudy 80 26.7 68 20 67 67 E 3 6 30.09 1019 10 16 0.00 0.00
5:53 pm 17:53 Mostly Cloudy 79 26.1 71 21.7 77 77 Calm 30.10 1019 10 16 0.00 0.00
6:53 pm 18:53 Mostly Cloudy with Light Rain 80 26.7 70 21.1 71 71 E 3 6 30.10 1019 10 16 0.00 0.00
7:53 pm 19:53 Partly Cloudy with Light Rain 77 25 73 22.8 88 88 NNW 3 6 30.11 1020 9 14 0.00 0.00
8:53 pm 20:53 Clear 75 23.9 72 22.2 90 90 NNE 7 11 30.11 1020 10 16 0.01 0.25
9:53 pm 21:53 Mostly Cloudy with Light Rain 75 23.9 71 21.7 88 88 E 6 9 30.14 1021 10 16 0.00 0.00
10:53 pm 22:53 Partly Cloudy with Light Rain 74 23.3 72 22.2 94 94 Calm 30.15 1021 10 16 0.00 0.00
11:53 pm 23:53 Mostly Cloudy 74 23.3 71 21.7 91 91 SE 3 6 30.16 1021 10 16 0.01 0.25

Powered by AerisWeather